• In Netherlands
  • List of Countries
  • For 7 days
  • Water Temperature
  • Satellite Maps
  • Weather Map
  • Weather Widgets
  • user-avatar
    Login

    Hourly Weather Varna

    Today, 30 April, Sunday

    Time Temperature Precipitation Wind Pressure Humidity
    00:00 +12°C° 0 mm 2 mps 744 mmHg 68%
    01:00 +12°C° 0 mm 2 mps 744 mmHg 69%
    02:00 +12°C° 0 mm 2 mps 744 mmHg 71%
    03:00 +10°C° 0 mm 2 mps 744 mmHg 74%
    04:00 +11°C° 0 mm 1 mps 744 mmHg 77%
    05:00 +11°C° 0 mm 1 mps 744 mmHg 79%
    06:00 +13°C° 0 mm 1 mps 744 mmHg 76%
    07:00 +15°C° 0 mm 2 mps 744 mmHg 73%
    08:00 +17°C° 0 mm 2 mps 744 mmHg 70%
    09:00 +18°C° 0 mm 2 mps 745 mmHg 68%
    10:00 +18°C° 0 mm 3 mps 745 mmHg 67%
    11:00 +19°C° 0 mm 3 mps 745 mmHg 66%
    12:00 +19°C° 0 mm 3 mps 745 mmHg 65%
    13:00 +20°C° 0 mm 3 mps 745 mmHg 64%
    14:00 +20°C° 0 mm 4 mps 745 mmHg 63%
    15:00 +20°C° 0 mm 4 mps 745 mmHg 64%
    16:00 +19°C° 0 mm 4 mps 745 mmHg 65%
    17:00 +19°C° 0 mm 4 mps 745 mmHg 66%
    18:00 +17°C° 0 mm 3 mps 745 mmHg 70%
    19:00 +14°C° 0 mm 3 mps 745 mmHg 75%
    20:00 +12°C° 0 mm 3 mps 745 mmHg 79%
    21:00 +11°C° 0 mm 3 mps 745 mmHg 78%
    22:00 +10°C° 0 mm 3 mps 745 mmHg 78%
    23:00 +9°C° 0 mm 3 mps 745 mmHg 77%

    Tomorrow, 1 May, Monday

    Time Temperature Precipitation Wind Pressure Humidity
    00:00 +9°C° 0 mm 3 mps 745 mmHg 76%
    01:00 +8°C° 0 mm 3 mps 745 mmHg 76%
    02:00 +7°C° 0 mm 4 mps 745 mmHg 75%
    03:00 +7°C° 0 mm 4 mps 745 mmHg 77%
    04:00 +7°C° 0 mm 4 mps 745 mmHg 79%
    05:00 +6°C° 0 mm 4 mps 745 mmHg 81%
    06:00 +8°C° 0 mm 4 mps 745 mmHg 79%
    07:00 +11°C° 0 mm 4 mps 746 mmHg 78%
    08:00 +13°C° 0 mm 5 mps 746 mmHg 76%
    09:00 +15°C° 0 mm 5 mps 746 mmHg 70%
    10:00 +17°C° 0 mm 5 mps 746 mmHg 64%
    11:00 +20°C° 0 mm 5 mps 747 mmHg 59%
    12:00 +20°C° 0 mm 5 mps 746 mmHg 56%
    13:00 +21°C° 0 mm 5 mps 746 mmHg 53%
    14:00 +22°C° 0 mm 5 mps 746 mmHg 51%
    15:00 +21°C° 0 mm 5 mps 746 mmHg 53%
    16:00 +21°C° 0 mm 5 mps 746 mmHg 56%
    17:00 +20°C° 0 mm 4 mps 746 mmHg 58%
    18:00 +18°C° 0 mm 4 mps 746 mmHg 67%
    19:00 +14°C° 0 mm 3 mps 746 mmHg 77%
    20:00 +11°C° 0 mm 3 mps 746 mmHg 86%
    21:00 +10°C° 0 mm 3 mps 746 mmHg 86%
    22:00 +10°C° 0 mm 2 mps 747 mmHg 87%
    23:00 +9°C° 0 mm 2 mps 747 mmHg 87%

    Day after tomorrow, 2 May, Tuesday

    Time Temperature Precipitation Wind Pressure Humidity
    00:00 +9°C° 0 mm 2 mps 747 mmHg 86%
    01:00 +8°C° 0 mm 2 mps 747 mmHg 85%
    02:00 +8°C° 0 mm 2 mps 747 mmHg 85%
    03:00 +8°C° 0 mm 2 mps 747 mmHg 84%
    04:00 +8°C° 0 mm 3 mps 747 mmHg 84%
    05:00 +8°C° 0 mm 3 mps 747 mmHg 83%
    06:00 +11°C° 0 mm 3 mps 747 mmHg 75%
    07:00 +13°C° 0 mm 3 mps 747 mmHg 68%
    08:00 +17°C° 0 mm 3 mps 748 mmHg 60%
    09:00 +18°C° 0 mm 3 mps 748 mmHg 57%
    10:00 +20°C° 0 mm 3 mps 748 mmHg 53%
    11:00 +21°C° 0 mm 3 mps 748 mmHg 49%
    12:00 +22°C° 0 mm 4 mps 748 mmHg 49%
    13:00 +22°C° 0 mm 4 mps 748 mmHg 48%
    14:00 +23°C° 0 mm 4 mps 748 mmHg 48%
    15:00 +22°C° 0 mm 4 mps 748 mmHg 51%
    16:00 +22°C° 0 mm 4 mps 748 mmHg 55%
    17:00 +21°C° 0 mm 3 mps 747 mmHg 58%
    18:00 +18°C° 0 mm 3 mps 748 mmHg 67%
    19:00 +14°C° 0 mm 3 mps 748 mmHg 76%
    20:00 +13°C° 0 mm 2 mps 748 mmHg 85%
    21:00 +12°C° 0 mm 2 mps 748 mmHg 86%
    22:00 +10°C° 0 mm 2 mps 748 mmHg 86%
    23:00 +10°C° 0 mm 1 mps 748 mmHg 87%

    3 May, Wednesday

    Time Temperature Precipitation Wind Pressure Humidity
    00:00 +9°C° 0 mm 1 mps 748 mmHg 87%
    01:00 +9°C° 0 mm 1 mps 748 mmHg 86%
    02:00 +9°C° 0 mm 1 mps 748 mmHg 86%
    03:00 +9°C° 0 mm 1 mps 748 mmHg 85%
    04:00 +8°C° 0 mm 2 mps 748 mmHg 85%
    05:00 +8°C° 0 mm 2 mps 748 mmHg 84%
    06:00 +12°C° 0 mm 2 mps 748 mmHg 77%
    07:00 +15°C° 0 mm 2 mps 748 mmHg 69%
    08:00 +18°C° 0 mm 2 mps 748 mmHg 62%
    09:00 +19°C° 0 mm 2 mps 748 mmHg 60%
    10:00 +21°C° 0 mm 3 mps 749 mmHg 57%
    11:00 +22°C° 0 mm 3 mps 749 mmHg 54%
    12:00 +23°C° 0 mm 4 mps 748 mmHg 54%
    13:00 +23°C° 0 mm 4 mps 748 mmHg 54%
    14:00 +23°C° 0 mm 4 mps 748 mmHg 53%
    15:00 +22°C° 0 mm 4 mps 748 mmHg 57%
    16:00 +21°C° 0 mm 4 mps 748 mmHg 61%
    17:00 +20°C° 0 mm 4 mps 747 mmHg 65%
    18:00 +18°C° 0 mm 4 mps 748 mmHg 73%
    19:00 +14°C° 0 mm 3 mps 748 mmHg 82%
    20:00 +12°C° 0 mm 3 mps 748 mmHg 90%
    21:00 +11°C° 0 mm 3 mps 748 mmHg 90%
    22:00 +10°C° 0 mm 2 mps 748 mmHg 91%
    23:00 +10°C° 0 mm 2 mps 748 mmHg 91%

    4 May, Thursday

    Time Temperature Precipitation Wind Pressure Humidity
    00:00 +9°C° 0 mm 2 mps 747 mmHg 91%
    01:00 +9°C° 0 mm 2 mps 747 mmHg 91%
    02:00 +9°C° 0 mm 1 mps 747 mmHg 91%
    03:00 +9°C° 0 mm 2 mps 747 mmHg 90%
    04:00 +9°C° 0 mm 2 mps 747 mmHg 89%
    05:00 +9°C° 0 mm 2 mps 747 mmHg 88%
    06:00 +12°C° 0 mm 2 mps 747 mmHg 81%
    07:00 +15°C° 0 mm 2 mps 747 mmHg 75%
    08:00 +17°C° 0 mm 2 mps 747 mmHg 68%
    09:00 +19°C° 0 mm 2 mps 747 mmHg 63%
    10:00 +20°C° 0 mm 3 mps 747 mmHg 59%
    11:00 +21°C° 0 mm 3 mps 747 mmHg 54%
    12:00 +22°C° 0 mm 3 mps 747 mmHg 54%
    13:00 +22°C° 0 mm 3 mps 747 mmHg 53%
    14:00 +22°C° 0 mm 4 mps 746 mmHg 52%
    15:00 +22°C° 0 mm 4 mps 746 mmHg 56%
    16:00 +21°C° 0 mm 3 mps 746 mmHg 60%
    17:00 +20°C° 0 mm 3 mps 746 mmHg 64%
    18:00 +17°C° 0 mm 3 mps 746 mmHg 73%
    19:00 +14°C° 0 mm 3 mps 746 mmHg 81%
    20:00 +13°C° 0 mm 2 mps 746 mmHg 90%
    21:00 +12°C° 0 mm 2 mps 746 mmHg 90%
    22:00 +10°C° 0 mm 2 mps 746 mmHg 91%
    23:00 +10°C° 0 mm 2 mps 746 mmHg 91%

    5 May, Friday

    Time Temperature Precipitation Wind Pressure Humidity
    00:00 +10°C° 0 mm 1 mps 746 mmHg 91%
    01:00 +10°C° 0 mm 1 mps 746 mmHg 91%
    02:00 +10°C° 0 mm 1 mps 745 mmHg 90%
    03:00 +10°C° 0 mm 1 mps 745 mmHg 90%
    04:00 +10°C° 0 mm 1 mps 745 mmHg 90%
    05:00 +9°C° 0 mm 2 mps 745 mmHg 89%
    06:00 +12°C° 0 mm 2 mps 745 mmHg 83%
    07:00 +14°C° 0 mm 2 mps 745 mmHg 77%
    08:00 +17°C° 0 mm 2 mps 745 mmHg 71%
    09:00 +18°C° 0 mm 3 mps 745 mmHg 67%
    10:00 +19°C° 0 mm 3 mps 745 mmHg 63%
    11:00 +21°C° 0 mm 3 mps 744 mmHg 59%
    12:00 +21°C° 0 mm 4 mps 744 mmHg 59%
    13:00 +21°C° 0 mm 4 mps 744 mmHg 60%
    14:00 +21°C° 0 mm 4 mps 743 mmHg 60%
    15:00 +20°C° 0 mm 4 mps 743 mmHg 63%
    16:00 +19°C° 0 mm 4 mps 742 mmHg 66%
    17:00 +18°C° 0 mm 4 mps 742 mmHg 69%
    18:00 +15°C° 0.1 mm 4 mps 742 mmHg 77%
    19:00 +13°C° 0.1 mm 3 mps 742 mmHg 85%
    20:00 +12°C° 0.1 mm 2 mps 742 mmHg 93%
    21:00 +10°C° 0.4 mm 2 mps 742 mmHg 94%
    22:00 +11°C° 0.4 mm 1 mps 742 mmHg 95%
    23:00 +10°C° 0.4 mm 1 mps 742 mmHg 96%
    Show more